Capri, Italy

6:11 AM CET on February 20, 2017 (GMT +0100)
Capri

Weather History for LIQC - April, 2013

Change the Weather History Date:

Friday, April 26, 2013

  Actual Average (LIRN) Record (LIRN)
Temperature  
Mean Temperature 66 °F -  
Max Temperature 76 °F 67 °F 78 °F (2013)
Min Temperature 57 °F 51 °F 39 °F (2016)
Cooling Degree Days 2    
Growing Degree Days 16 (Base 50)    
Moisture  
Dew Point 55 °F    
Average Humidity 63    
Maximum Humidity 100    
Minimum Humidity 30    
Precipitation  
Precipitation 0.12 in - - ()
Sea Level Pressure  
Sea Level Pressure 30.06 in    
Wind  
Wind Speed 2 mph ()    
Max Wind Speed 13 mph    
Max Gust Speed -    
Visibility 7.6 miles    
Events Rain    
Averages and records for this station are not official NWS values.
T = Trace of Precipitation, MM = Missing Value Source: Averaged Metar Reports

Daily Weather History Graph

Daily Weather History Graph

Search for Another Location

Airport or City:

Trip Planner

Search our weather history database for the weather conditions in past years. The results will help you decide how hot, cold, wet, or windy it might be!

Date:

Astronomy

Apr. 26, 2013 Rise Set
Actual Time 6:08 AM CEST 7:53 PM CEST
Civil Twilight 5:39 AM CEST 8:23 PM CEST
Nautical Twilight 5:04 AM CEST 8:58 PM CEST
Astronomical Twilight 4:26 AM CEST 9:36 PM CEST
Moon 8:56 PM CEST (4/26) 6:22 AM CEST (4/26)
Length of Visible Light 14h 43m
Length of Day
13h 45m
Full, 100% of the Moon is Illuminated
Apr 26
Full
May 2
Last Quarter
May 10
New
May 18
First Quarter
May 25
Full

Hourly Weather History & Observations

Time (CEST) Temp. Dew Point Humidity Pressure Visibility Wind Dir Wind Speed Gust Speed Precip Events Conditions
12:55 AM 73.4 °F 57.2 °F 57% 30.12 in - North - - N/A   Clear
2:00 AM 75 °F 60 °F 50% 30.12 in 6 mi Calm Calm - -   Partly Cloudy
5:00 AM 68 °F 60 °F 69% 30.12 in 6 mi Calm Calm - -   Partly Cloudy
5:55 AM 69.8 °F 55.4 °F 60% 30.09 in - North - - N/A   Scattered Clouds
6:55 AM 71.6 °F 53.6 °F 53% 30.09 in - North - - N/A   Scattered Clouds
7:55 AM 73.4 °F 50.0 °F 44% 30.09 in - North - - N/A   Clear
8:00 AM 73 °F 49 °F 32% 30.09 in 6 mi Calm Calm - -   Partly Cloudy
8:55 AM 73.4 °F 46.4 °F 38% 30.06 in - North - - N/A   Clear
9:55 AM 75.2 °F 50.0 °F 41% 30.06 in - North - - N/A   Clear
10:55 AM 75.2 °F 50.0 °F 41% 30.06 in - North - - N/A   Clear
11:00 AM 76 °F 51 °F 30% 30.05 in 12 mi 8.1 mph - -   Scattered Clouds
11:55 AM 73.4 °F 51.8 °F 47% 30.06 in - North - - N/A   Clear
12:55 PM 73.4 °F 50.0 °F 44% 30.06 in - North - - N/A   Partly Cloudy
1:55 PM 73.4 °F 51.8 °F 47% 30.04 in - North - - N/A   Scattered Clouds
2:00 PM 74 °F 52 °F 35% 30.03 in 12 mi 3.5 mph - -   Overcast
2:55 PM 73.4 °F 50.0 °F 44% 30.04 in - North - - N/A   Scattered Clouds
3:55 PM 73.4 °F 50.0 °F 44% 30.04 in - North - - N/A   Scattered Clouds
4:55 PM 68.0 °F 59.0 °F 73% 30.06 in - North - - N/A   Partly Cloudy
5:00 PM 68 °F 58 °F 63% 30.05 in 12 mi 2.3 mph - - Rain Light Rain
5:55 PM 68.0 °F 64.4 °F 88% 30.06 in - North - - N/A Rain Light Rain
6:55 PM 64.4 °F 64.4 °F 100% 30.06 in - North - - N/A Rain Light Rain
7:55 PM 59.0 °F 59.0 °F 100% 30.04 in - North - - N/A Rain Rain
8:00 PM 59 °F 59 °F 100% 30.04 in 2 mi 12.7 mph - - Rain Rain
8:55 PM 59.0 °F 57.2 °F 94% 30.01 in - North - - N/A Rain Light Rain
9:55 PM 59.0 °F 57.2 °F 94% 30.04 in - North - - N/A Rain Light Rain
10:55 PM 57.2 °F 55.4 °F 94% 30.01 in - North - - N/A Rain Light Rain
11:00 PM 57 °F 56 °F 94% 30.02 in 6 mi 1.2 mph - - Rain Light Rain
11:55 PM 59.0 °F 57.2 °F 94% 30.01 in 6.2 mi Calm Calm - N/A   Mostly Cloudy